Home   Weather   Hefei   Past weeks

Flag for China Past Weather in Hefei, Anhui, China — Yesterday and Last 2 Weeks

Now
102 °F

Passing clouds.


Feels Like: 117 °F
Forecast: 83 / 103 °F
Wind: 6 mph from Northeast

Location: Hefei Airport

Current Time: Jul 25, 2017 at 3:00:03 pm

Latest Report: Jul 25, 2017 at 2:00 pm


Visibility: N/A

Pressure: 29.65 "Hg

Humidity: 42%

Dew Point: 75 °F

Location of HefeiLocation

Past Weather in Hefei — Graph

°F

Hefei Temperature Yesterday

Maximum temperature yesterday: 102 °F (at 3:00 pm)
Minimum temperature yesterday: 84 °F (at 3:00 am)
Average temperature yesterday: 93 °F

High & Low Weather Summary for the Past Weeks

 TemperatureHumidityPressure
High102 °F (Jul 22, 3:00 pm)100% (Jul 10, 11:00 pm)29.83 "Hg (Jul 10, 11:00 pm)
Low75 °F (Jul 11, 4:00 am)37% (Jul 22, 3:00 pm)29.59 "Hg (Jul 10, 2:00 pm)
Average89 °F71%29.70 "Hg
* Reported Jul 10 1:00 pm — Jul 25 1:00 pm, Hefei. Weather by CustomWeather, © 2017

Note: Actual official high and low records may vary slightly from our data, if they occured in-between our weather recording intervals... More about our weather records

Advertising

Hefei Weather History for the Previous 24 Hours

Scroll right to see more
 ConditionsComfort  
Time TempWeatherWind HumidityBarometerVisibility
1:00 pm
Tue, Jul 25
102 °FPassing clouds.6 mph40%29.65 "HgN/A
12:00 pm100 °FScattered clouds.3 mph42%29.68 "HgN/A
11:00 am99 °FPassing clouds.6 mph50%29.68 "HgN/A
10:00 am97 °FPassing clouds.8 mph56%29.68 "HgN/A
9:00 am95 °FPassing clouds.3 mph60%29.68 "HgN/A
8:00 am91 °FPassing clouds.3 mph71%29.68 "HgN/A
7:00 am86 °FFog.1 mph84%29.68 "Hg3 mi
6:00 am81 °FFog.1 mph94%29.68 "Hg3 mi
5:00 am81 °FFog.1 mph94%29.65 "Hg3 mi
4:00 am81 °FClear.No wind94%29.65 "Hg5 mi
3:00 am81 °FClear.No wind94%29.62 "Hg10 mi
2:00 am82 °FClear.1 mph89%29.62 "Hg10 mi
1:00 am84 °FClear.3 mph84%29.62 "Hg10 mi
12:00 am84 °FClear.3 mph84%29.62 "Hg10 mi
11:00 pm
Mon, Jul 24
88 °FClear.3 mph66%29.62 "Hg10 mi
10:00 pm90 °FClear.3 mph63%29.62 "Hg10 mi
9:00 pm90 °FClear.1 mph63%29.62 "Hg10 mi
8:00 pm95 °FClear.6 mph53%29.59 "Hg10 mi
7:00 pm97 °FSunny.No wind53%29.59 "Hg10 mi
6:00 pm100 °FSunny.3 mph45%29.59 "Hg10 mi
5:00 pm100 °FSunny.3 mph42%29.59 "Hg10 mi
4:00 pm102 °FPassing clouds.6 mph40%29.59 "HgN/A
3:00 pm102 °FPassing clouds.6 mph40%29.62 "HgN/A
Weather by CustomWeather, © 2017

See weather overviewHow to use our weather pages